Location: G�ppingen
(48.7089°N, 9.6563°E)
Time: 00:24:33
(UTC+02:00)

M-CUBED/EXP-1 PRIME - Pass Details

Date: 25 March 2019
Orbit: 430 x 671 km, 101.7° (Epoch: 22 April)

Event Time Altitude Azimuth Distance (km) Brightness Sun altitude
Rises 20:21:08 0° 23° (NNE) 2,958 ? -16.8°
Reaches altitude 10° 20:23:21 10° 28° (NNE) 2,068 ? -17.1°
Maximum altitude 20:27:49 55° 106° (ESE) 801 ? -17.8°
Drops below altitude 10° 20:32:19 10° 185° (S) 2,097 ? -18.5°
Sets 20:34:35 0° 189° (S) 3,003 ? -18.8°
